Location: Sungai Bunut
(2.6333°N, 113.7333°E)
Time: 16:15:26
(UTC+00:00)

Cosmos 1697 Rocket - Pass Details

Date: 27 May 2022
Orbit: 833 x 843 km, 71.0° (Epoch: 03 July)

Event Time Altitude Azimuth Distance (km) Brightness Sun altitude
Rises 11:41:33 0° 206° (SSW) 3,389 5.9 -17.4°
Reaches altitude 10° 11:44:03 10° 211° (SSW) 2,454 5.2 -18.0°
Maximum altitude 11:49:29 51° 285° (WNW) 1,053 3.6 -19.2°
Drops below altitude 10° 11:54:56 10° 0° (N) 2,450 5.4 -20.4°
Sets 11:57:26 0° 6° (N) 3,383 6.1 -21.0°
